• în Republica Moldova
  • Lista ţărilor
  • Pe 7 zile
  • Temperatura apei
  • Hartă satelitară
  • Meteo pe hartă
  • Widget-uri
  • user-avatar
    Intrare

    Meteo pe oră la Shkoder

    Astăzi, 24 Septembrie, Luni

    Timp Temperatura Precipitaţii Vânt Presiune Umiditate
    00:00 +20°C° 0 mm 2 m/s 741 mmHg 56%
    01:00 +20°C° 0 mm 2 m/s 740 mmHg 55%
    02:00 +19°C° 0 mm 2 m/s 740 mmHg 56%
    03:00 +19°C° 0 mm 2 m/s 740 mmHg 56%
    04:00 +19°C° 0 mm 2 m/s 740 mmHg 57%
    05:00 +20°C° 0 mm 2 m/s 739 mmHg 55%
    06:00 +21°C° 0 mm 2 m/s 739 mmHg 52%
    07:00 +23°C° 0 mm 2 m/s 739 mmHg 50%
    08:00 +25°C° 0 mm 2 m/s 739 mmHg 47%
    09:00 +27°C° 0 mm 2 m/s 740 mmHg 44%
    10:00 +29°C° 0 mm 3 m/s 740 mmHg 41%
    11:00 +29°C° 0 mm 3 m/s 740 mmHg 42%
    12:00 +29°C° 0 mm 3 m/s 741 mmHg 44%
    13:00 +29°C° 0 mm 3 m/s 741 mmHg 45%
    14:00 +27°C° 0.3 mm 3 m/s 741 mmHg 50%
    15:00 +23°C° 0.3 mm 4 m/s 741 mmHg 54%
    16:00 +21°C° 0.3 mm 4 m/s 741 mmHg 59%
    17:00 +19°C° 0.1 mm 5 m/s 742 mmHg 60%
    18:00 +17°C° 0.1 mm 5 m/s 743 mmHg 62%
    19:00 +15°C° 0.1 mm 6 m/s 743 mmHg 64%
    20:00 +15°C° 0 mm 6 m/s 744 mmHg 63%
    21:00 +14°C° 0 mm 6 m/s 744 mmHg 63%
    22:00 +14°C° 0 mm 6 m/s 745 mmHg 62%
    23:00 +14°C° 0 mm 6 m/s 745 mmHg 63%

    Mâine, 25 Septembrie, Marţi

    Timp Temperatura Precipitaţii Vânt Presiune Umiditate
    00:00 +13°C° 0 mm 6 m/s 745 mmHg 64%
    01:00 +13°C° 0 mm 6 m/s 746 mmHg 65%
    02:00 +11°C° 0 mm 6 m/s 746 mmHg 64%
    03:00 +11°C° 0 mm 6 m/s 746 mmHg 64%
    04:00 +10°C° 0 mm 6 m/s 746 mmHg 64%
    05:00 +10°C° 0 mm 6 m/s 746 mmHg 61%
    06:00 +11°C° 0 mm 7 m/s 747 mmHg 58%
    07:00 +11°C° 0 mm 7 m/s 747 mmHg 55%
    08:00 +14°C° 0 mm 6 m/s 747 mmHg 48%
    09:00 +15°C° 0 mm 6 m/s 747 mmHg 42%
    10:00 +17°C° 0 mm 6 m/s 747 mmHg 35%
    11:00 +19°C° 0 mm 6 m/s 747 mmHg 34%
    12:00 +20°C° 0 mm 6 m/s 746 mmHg 32%
    13:00 +21°C° 0 mm 6 m/s 746 mmHg 30%
    14:00 +20°C° 0 mm 6 m/s 746 mmHg 32%
    15:00 +19°C° 0 mm 6 m/s 746 mmHg 33%
    16:00 +19°C° 0 mm 6 m/s 746 mmHg 35%
    17:00 +16°C° 0 mm 6 m/s 747 mmHg 39%
    18:00 +14°C° 0 mm 6 m/s 747 mmHg 43%
    19:00 +11°C° 0 mm 6 m/s 748 mmHg 47%
    20:00 +10°C° 0 mm 6 m/s 748 mmHg 48%
    21:00 +10°C° 0 mm 6 m/s 749 mmHg 50%
    22:00 +9°C° 0 mm 6 m/s 749 mmHg 52%
    23:00 +8°C° 0 mm 6 m/s 749 mmHg 52%

    Poimâine, 26 Septembrie, Miercuri

    Timp Temperatura Precipitaţii Vânt Presiune Umiditate
    00:00 +8°C° 0 mm 6 m/s 749 mmHg 52%
    01:00 +8°C° 0 mm 6 m/s 750 mmHg 52%
    02:00 +7°C° 0 mm 6 m/s 750 mmHg 52%
    03:00 +7°C° 0 mm 6 m/s 750 mmHg 53%
    04:00 +7°C° 0 mm 6 m/s 750 mmHg 54%
    05:00 +7°C° 0 mm 6 m/s 750 mmHg 52%
    06:00 +8°C° 0 mm 6 m/s 750 mmHg 50%
    07:00 +9°C° 0 mm 6 m/s 750 mmHg 48%
    08:00 +11°C° 0 mm 6 m/s 750 mmHg 42%
    09:00 +14°C° 0 mm 6 m/s 750 mmHg 37%
    10:00 +16°C° 0 mm 7 m/s 750 mmHg 32%
    11:00 +17°C° 0 mm 6 m/s 750 mmHg 30%
    12:00 +17°C° 0 mm 6 m/s 749 mmHg 28%
    13:00 +19°C° 0 mm 6 m/s 749 mmHg 26%
    14:00 +19°C° 0 mm 6 m/s 749 mmHg 27%
    15:00 +17°C° 0 mm 5 m/s 749 mmHg 27%
    16:00 +17°C° 0 mm 5 m/s 749 mmHg 28%
    17:00 +15°C° 0 mm 5 m/s 749 mmHg 33%
    18:00 +13°C° 0 mm 5 m/s 750 mmHg 38%
    19:00 +10°C° 0 mm 4 m/s 751 mmHg 43%
    20:00 +10°C° 0 mm 4 m/s 751 mmHg 45%
    21:00 +8°C° 0 mm 4 m/s 751 mmHg 47%
    22:00 +7°C° 0 mm 4 m/s 751 mmHg 49%
    23:00 +7°C° 0 mm 4 m/s 751 mmHg 48%

    27 Septembrie, Joi

    Timp Temperatura Precipitaţii Vânt Presiune Umiditate
    00:00 +7°C° 0 mm 4 m/s 751 mmHg 48%
    01:00 +6°C° 0 mm 4 m/s 751 mmHg 48%
    02:00 +6°C° 0 mm 4 m/s 751 mmHg 47%
    03:00 +6°C° 0 mm 4 m/s 750 mmHg 46%
    04:00 +6°C° 0 mm 4 m/s 750 mmHg 46%
    05:00 +7°C° 0 mm 4 m/s 750 mmHg 42%
    06:00 +8°C° 0 mm 4 m/s 750 mmHg 38%
    07:00 +11°C° 0 mm 4 m/s 750 mmHg 35%
    08:00 +13°C° 0 mm 4 m/s 749 mmHg 30%
    09:00 +17°C° 0 mm 4 m/s 749 mmHg 25%
    10:00 +19°C° 0 mm 3 m/s 748 mmHg 21%
    11:00 +21°C° 0 mm 4 m/s 748 mmHg 20%
    12:00 +22°C° 0 mm 4 m/s 747 mmHg 19%
    13:00 +23°C° 0 mm 4 m/s 746 mmHg 18%
    14:00 +23°C° 0 mm 4 m/s 746 mmHg 19%
    15:00 +22°C° 0 mm 4 m/s 745 mmHg 21%
    16:00 +22°C° 0 mm 4 m/s 745 mmHg 23%
    17:00 +19°C° 0 mm 4 m/s 745 mmHg 27%
    18:00 +17°C° 0 mm 4 m/s 745 mmHg 32%
    19:00 +13°C° 0 mm 3 m/s 745 mmHg 36%
    20:00 +12°C° 0 mm 4 m/s 745 mmHg 37%
    21:00 +12°C° 0 mm 4 m/s 745 mmHg 38%
    22:00 +11°C° 0 mm 4 m/s 745 mmHg 39%
    23:00 +11°C° 0 mm 4 m/s 745 mmHg 38%

    28 Septembrie, Vineri

    Timp Temperatura Precipitaţii Vânt Presiune Umiditate
    00:00 +11°C° 0 mm 4 m/s 744 mmHg 37%
    01:00 +10°C° 0 mm 4 m/s 744 mmHg 37%
    02:00 +10°C° 0 mm 4 m/s 743 mmHg 36%
    03:00 +10°C° 0 mm 4 m/s 743 mmHg 35%
    04:00 +10°C° 0 mm 4 m/s 743 mmHg 34%
    05:00 +11°C° 0 mm 4 m/s 743 mmHg 33%
    06:00 +12°C° 0 mm 4 m/s 742 mmHg 31%
    07:00 +13°C° 0 mm 4 m/s 742 mmHg 29%
    08:00 +17°C° 0 mm 4 m/s 742 mmHg 25%
    09:00 +19°C° 0 mm 3 m/s 742 mmHg 21%
    10:00 +22°C° 0 mm 3 m/s 741 mmHg 17%
    11:00 +24°C° 0 mm 3 m/s 741 mmHg 17%
    12:00 +25°C° 0 mm 3 m/s 741 mmHg 17%
    13:00 +27°C° 0 mm 3 m/s 740 mmHg 16%
    14:00 +26°C° 0 mm 3 m/s 740 mmHg 18%
    15:00 +26°C° 0 mm 3 m/s 740 mmHg 21%
    16:00 +25°C° 0 mm 3 m/s 739 mmHg 23%
    17:00 +22°C° 0 mm 3 m/s 740 mmHg 26%
    18:00 +19°C° 0 mm 3 m/s 740 mmHg 30%
    19:00 +17°C° 0 mm 3 m/s 740 mmHg 33%
    20:00 +16°C° 0 mm 3 m/s 740 mmHg 34%
    21:00 +16°C° 0 mm 3 m/s 741 mmHg 34%
    22:00 +14°C° 0 mm 3 m/s 741 mmHg 35%
    23:00 +14°C° 0 mm 3 m/s 741 mmHg 36%

    29 Septembrie, Sâmbătă

    Timp Temperatura Precipitaţii Vânt Presiune Umiditate
    00:00 +14°C° 0 mm 3 m/s 740 mmHg 36%
    01:00 +13°C° 0 mm 3 m/s 740 mmHg 37%
    02:00 +13°C° 0 mm 3 m/s 740 mmHg 37%
    03:00 +13°C° 0 mm 3 m/s 740 mmHg 37%
    04:00 +13°C° 0 mm 3 m/s 740 mmHg 37%
    05:00 +14°C° 0 mm 3 m/s 740 mmHg 37%
    06:00 +16°C° 0 mm 3 m/s 740 mmHg 37%
    07:00 +16°C° 0 mm 3 m/s 740 mmHg 36%
    08:00 +19°C° 0 mm 3 m/s 740 mmHg 32%
    09:00 +21°C° 0 mm 2 m/s 740 mmHg 28%
    10:00 +25°C° 0 mm 2 m/s 740 mmHg 24%
    11:00 +26°C° 0 mm 2 m/s 740 mmHg 24%
    12:00 +27°C° 0 mm 2 m/s 740 mmHg 23%
    13:00 +28°C° 0 mm 3 m/s 740 mmHg 23%
    14:00 +27°C° 0 mm 3 m/s 740 mmHg 25%
    15:00 +26°C° 0 mm 3 m/s 740 mmHg 27%
    16:00 +26°C° 0 mm 4 m/s 740 mmHg 28%
    17:00 +22°C° 0 mm 3 m/s 740 mmHg 32%
    18:00 +20°C° 0 mm 3 m/s 741 mmHg 37%
    19:00 +18°C° 0 mm 3 m/s 741 mmHg 41%
    20:00 +17°C° 0 mm 3 m/s 741 mmHg 43%
    21:00 +17°C° 0 mm 3 m/s 742 mmHg 45%
    22:00 +15°C° 0 mm 4 m/s 742 mmHg 47%
    23:00 +16°C° 0 mm 3 m/s 742 mmHg 49%
    Arată mai mult